GAOFEN 9

导读

GAOFEN 9(高分九号)是中国于2015年9月14日8时发射的光学遥感卫星,隶属于中国高分专项工程。该卫星主要应用于国土普查、城市规划、农作物估产、防灾减灾等领域,还可为“一带一路”建设等提供信息保障。其地面像元分辨率可达亚米级,能获取高清晰度遥感影像,在国民经济建设中发挥重要作用,进一步提升了中国遥感卫星的应用能力。

Basic Information
目录编号:
40894
目录名称:
GAOFEN 9
国际标识:
2015-047A
轨道中心:
EARTH
卫星名称:
GAOFEN 9
卫星全名:
--
卫星状态:
在轨 (已飞行4019 天)
发射日期:
2015-09-14 UTC
国别 :
中国 (CN)
星等 :
--
This satellite is enrolled in the Space Conjunction Data Service (SCDS) and the current flight risk assessment level is: No High Risk
Orbit Information
数据来源 国际轨道数据 AOE轨道数据
星历时间 2026-09-15T22:42:39+0800
8小时前
查看轨道信息
2026-09-15T23:00:00+0800
8小时前
查看轨道信息
半长轴 6997.941km 6997.942km
偏心率 0.0026699 0.0026446
轨道倾角 97.622° 97.626°
近地点辐角 200.273° 202.704°
升交点赤经 290.179° 290.194°
平近点角 159.743° 221.615°
近地点 601.12km 601.298km
远地点 638.488km 638.312km
周期 97.099分钟 97.099分钟
每日圈数 14.830212 14.830211
Detailed Information
使用方式:
暂无
2D Orbit Map
3D Orbit Map
Orbit Altitude Analysis Chart
Orbit Inclination Analysis Chart
Orbit Comprehensive Analysis Chart
View Comprehensive Chart
Miss Distance Evolution Trend with All Objects Subscribe to Flight Safety Assessment
Collision Probability Evolution Trend with All Objects Subscribe to Flight Safety Assessment